Powrót do katalogu

STARLINK-11309

AktywnyŁącznośćVLEO
NORAD 61202·PAYLOAD·🇺🇸 United States

Wystrzelony Sep 20, 2024 z Vandenberg Space Force Base

Loading…

Następne Przeloty (najbliższe 24 godziny)

TLE

ŚwieżeSource: CelesTrak SupGP

Epoka: Sep 14, 2026, 20:43 UTC

1 61202C 24171C   26257.86368056 -.00071044  00000+0 -58508-3 0  2573
2 61202  53.1559 323.7791 0001098  86.0827 129.7789 15.69750333    18

Śledź STARLINK-11309 w czasie rzeczywistym z AllMySat

Download on the App Store